owner,sensor,date,latitude,longitude,vertical_datum,mass_concentration_of_oxygen_in_sea_water,qcFlag 
LUMCON,ioos:station:LUMCON:101:1,2017-08-01T00:00:00Z,29.2533,-90.6633,50.05,3.55,1111122 
LUMCON,ioos:station:LUMCON:101:1,2017-08-01T00:15:00Z,29.2533,-90.6633,66.53,4.71,1111122 
LUMCON,ioos:station:LUMCON:101:1,2017-08-01T00:30:00Z,29.2533,-90.6633,56.5,3.99,1111122 
LUMCON,ioos:station:LUMCON:101:1,2017-08-01T00:45:00Z,29.2533,-90.6633,73.16,5.16,1111122 
LUMCON,ioos:station:LUMCON:101:1,2017-08-01T01:00:00Z,29.2533,-90.6633,55.96,3.96,1111122 
LUMCON,ioos:station:LUMCON:101:1,2017-08-01T01:15:00Z,29.2533,-90.6633,56.62,4.0,1111122 
LUMCON,ioos:station:LUMCON:101:1,2017-08-01T01:30:00Z,29.2533,-90.6633,69.42,4.88,1111122 
LUMCON,ioos:station:LUMCON:101:1,2017-08-01T01:45:00Z,29.2533,-90.6633,62.58,4.4,1111122 
LUMCON,ioos:station:LUMCON:101:1,2017-08-01T02:00:00Z,29.2533,-90.6633,80.5,5.66,1111122 
LUMCON,ioos:station:LUMCON:101:1,2017-08-01T02:15:00Z,29.2533,-90.6633,83.0,5.84,1111122 
LUMCON,ioos:station:LUMCON:101:1,2017-08-01T02:30:00Z,29.2533,-90.6633,79.74,5.61,1111122 
LUMCON,ioos:station:LUMCON:101:1,2017-08-01T02:45:00Z,29.2533,-90.6633,81.2,5.72,1111122 
LUMCON,ioos:station:LUMCON:101:1,2017-08-01T03:00:00Z,29.2533,-90.6633,81.6,5.75,1111122 
LUMCON,ioos:station:LUMCON:101:1,2017-08-01T03:15:00Z,29.2533,-90.6633,80.3,5.66,1111122 
LUMCON,ioos:station:LUMCON:101:1,2017-08-01T03:30:00Z,29.2533,-90.6633,81.8,5.76,1111122 
LUMCON,ioos:station:LUMCON:101:1,2017-08-01T03:45:00Z,29.2533,-90.6633,80.3,5.66,1111122 
LUMCON,ioos:station:LUMCON:101:1,2017-08-01T04:00:00Z,29.2533,-90.6633,80.3,5.66,1111122 
LUMCON,ioos:station:LUMCON:101:1,2017-08-01T04:15:00Z,29.2533,-90.6633,79.67,5.62,1111122 
LUMCON,ioos:station:LUMCON:101:1,2017-08-01T04:30:00Z,29.2533,-90.6633,79.68,5.63,1111122 
LUMCON,ioos:station:LUMCON:101:1,2017-08-01T04:45:00Z,29.2533,-90.6633,78.77,5.56,1111122 
LUMCON,ioos:station:LUMCON:101:1,2017-08-01T05:00:00Z,29.2533,-90.6633,82.3,5.82,1111122 
LUMCON,ioos:station:LUMCON:101:1,2017-08-01T05:15:00Z,29.2533,-90.6633,86.7,6.12,1111122 
LUMCON,ioos:station:LUMCON:101:1,2017-08-01T05:30:00Z,29.2533,-90.6633,85.3,6.01,1111122 
LUMCON,ioos:station:LUMCON:101:1,2017-08-01T05:45:00Z,29.2533,-90.6633,84.0,5.93,1111122 
LUMCON,ioos:station:LUMCON:101:1,2017-08-01T06:00:00Z,29.2533,-90.6633,82.1,5.8,1111122 
LUMCON,ioos:station:LUMCON:101:1,2017-08-01T06:15:00Z,29.2533,-90.6633,81.2,5.73,1111122 
LUMCON,ioos:station:LUMCON:101:1,2017-08-01T06:30:00Z,29.2533,-90.6633,81.1,5.72,1111122 
LUMCON,ioos:station:LUMCON:101:1,2017-08-01T06:45:00Z,29.2533,-90.6633,79.47,5.6,1111122 
LUMCON,ioos:station:LUMCON:101:1,2017-08-01T07:00:00Z,29.2533,-90.6633,79.24,5.58,1111122 
LUMCON,ioos:station:LUMCON:101:1,2017-08-01T07:15:00Z,29.2533,-90.6633,78.95,5.55,1111122 
LUMCON,ioos:station:LUMCON:101:1,2017-08-01T07:30:00Z,29.2533,-90.6633,77.7,5.46,1111122 
LUMCON,ioos:station:LUMCON:101:1,2017-08-01T07:45:00Z,29.2533,-90.6633,77.33,5.43,1111122 
LUMCON,ioos:station:LUMCON:101:1,2017-08-01T08:00:00Z,29.2533,-90.6633,77.52,5.44,1111122 
LUMCON,ioos:station:LUMCON:101:1,2017-08-01T08:15:00Z,29.2533,-90.6633,77.65,5.45,1111122 
LUMCON,ioos:station:LUMCON:101:1,2017-08-01T08:30:00Z,29.2533,-90.6633,77.27,5.42,1111122 
LUMCON,ioos:station:LUMCON:101:1,2017-08-01T08:45:00Z,29.2533,-90.6633,78.2,5.48,1111122 
LUMCON,ioos:station:LUMCON:101:1,2017-08-01T09:00:00Z,29.2533,-90.6633,77.92,5.46,1111122 
LUMCON,ioos:station:LUMCON:101:1,2017-08-01T09:15:00Z,29.2533,-90.6633,77.27,5.42,1111122 
LUMCON,ioos:station:LUMCON:101:1,2017-08-01T09:30:00Z,29.2533,-90.6633,76.02,5.33,1111122 
LUMCON,ioos:station:LUMCON:101:1,2017-08-01T09:45:00Z,29.2533,-90.6633,75.83,5.32,1111122 
LUMCON,ioos:station:LUMCON:101:1,2017-08-01T10:00:00Z,29.2533,-90.6633,75.1,5.27,1111122 
LUMCON,ioos:station:LUMCON:101:1,2017-08-01T10:15:00Z,29.2533,-90.6633,75.53,5.31,1111122 
LUMCON,ioos:station:LUMCON:101:1,2017-08-01T10:30:00Z,29.2533,-90.6633,74.72,5.26,1111122 
LUMCON,ioos:station:LUMCON:101:1,2017-08-01T10:45:00Z,29.2533,-90.6633,70.17,4.94,1111122 
LUMCON,ioos:station:LUMCON:101:1,2017-08-01T11:00:00Z,29.2533,-90.6633,69.81,4.92,1111122 
LUMCON,ioos:station:LUMCON:101:1,2017-08-01T11:15:00Z,29.2533,-90.6633,70.94,5.0,1111122 
LUMCON,ioos:station:LUMCON:101:1,2017-08-01T11:30:00Z,29.2533,-90.6633,71.2,5.02,1111122 
LUMCON,ioos:station:LUMCON:101:1,2017-08-01T11:45:00Z,29.2533,-90.6633,68.56,4.84,1111122 
LUMCON,ioos:station:LUMCON:101:1,2017-08-01T12:00:00Z,29.2533,-90.6633,68.54,4.84,1111122 
LUMCON,ioos:station:LUMCON:101:1,2017-08-01T12:15:00Z,29.2533,-90.6633,66.97,4.73,1111122 
LUMCON,ioos:station:LUMCON:101:1,2017-08-01T12:30:00Z,29.2533,-90.6633,67.29,4.76,1111122 
LUMCON,ioos:station:LUMCON:101:1,2017-08-01T12:45:00Z,29.2533,-90.6633,66.46,4.7,1111122 
LUMCON,ioos:station:LUMCON:101:1,2017-08-01T13:00:00Z,29.2533,-90.6633,66.56,4.71,1111122 
LUMCON,ioos:station:LUMCON:101:1,2017-08-01T13:15:00Z,29.2533,-90.6633,68.33,4.83,1111122 
LUMCON,ioos:station:LUMCON:101:1,2017-08-01T13:30:00Z,29.2533,-90.6633,67.68,4.79,1111122 
LUMCON,ioos:station:LUMCON:101:1,2017-08-01T13:45:00Z,29.2533,-90.6633,64.8,4.58,1111122 
LUMCON,ioos:station:LUMCON:101:1,2017-08-01T14:00:00Z,29.2533,-90.6633,68.36,4.83,1111122 
LUMCON,ioos:station:LUMCON:101:1,2017-08-01T14:15:00Z,29.2533,-90.6633,67.93,4.8,1111122 
LUMCON,ioos:station:LUMCON:101:1,2017-08-01T14:30:00Z,29.2533,-90.6633,69.73,4.93,1111122 
LUMCON,ioos:station:LUMCON:101:1,2017-08-01T14:45:00Z,29.2533,-90.6633,66.38,4.69,1111122 
LUMCON,ioos:station:LUMCON:101:1,2017-08-01T15:00:00Z,29.2533,-90.6633,56.39,3.99,1111122 
LUMCON,ioos:station:LUMCON:101:1,2017-08-01T15:15:00Z,29.2533,-90.6633,66.31,4.69,1111122 
LUMCON,ioos:station:LUMCON:101:1,2017-08-01T15:30:00Z,29.2533,-90.6633,71.0,5.02,1111122 
LUMCON,ioos:station:LUMCON:101:1,2017-08-01T15:45:00Z,29.2533,-90.6633,73.63,5.19,1111122 
LUMCON,ioos:station:LUMCON:101:1,2017-08-01T16:00:00Z,29.2533,-90.6633,75.52,5.31,1111122 
LUMCON,ioos:station:LUMCON:101:1,2017-08-01T16:15:00Z,29.2533,-90.6633,75.31,5.29,1111122 
LUMCON,ioos:station:LUMCON:101:1,2017-08-01T16:30:00Z,29.2533,-90.6633,74.95,5.25,1111122 
LUMCON,ioos:station:LUMCON:101:1,2017-08-01T16:45:00Z,29.2533,-90.6633,73.33,5.13,1111122 
LUMCON,ioos:station:LUMCON:101:1,2017-08-01T17:00:00Z,29.2533,-90.6633,74.02,5.17,1111122 
LUMCON,ioos:station:LUMCON:101:1,2017-08-01T17:15:00Z,29.2533,-90.6633,75.84,5.29,1111122 
LUMCON,ioos:station:LUMCON:101:1,2017-08-01T17:30:00Z,29.2533,-90.6633,79.2,5.51,1111122 
LUMCON,ioos:station:LUMCON:101:1,2017-08-01T17:45:00Z,29.2533,-90.6633,80.1,5.57,1111122 
LUMCON,ioos:station:LUMCON:101:1,2017-08-01T18:00:00Z,29.2533,-90.6633,81.9,5.68,1111122 
LUMCON,ioos:station:LUMCON:101:1,2017-08-01T18:15:00Z,29.2533,-90.6633,83.3,5.77,1111122 
LUMCON,ioos:station:LUMCON:101:1,2017-08-01T18:30:00Z,29.2533,-90.6633,84.8,5.87,1111122 
LUMCON,ioos:station:LUMCON:101:1,2017-08-01T19:15:00Z,29.2533,-90.6633,87.5,6.04,1111122 
LUMCON,ioos:station:LUMCON:101:1,2017-08-01T19:30:00Z,29.2533,-90.6633,90.6,6.24,1111122 
LUMCON,ioos:station:LUMCON:101:1,2017-08-01T19:45:00Z,29.2533,-90.6633,92.3,6.36,1111122 
LUMCON,ioos:station:LUMCON:101:1,2017-08-01T20:00:00Z,29.2533,-90.6633,93.5,6.44,1111122 
LUMCON,ioos:station:LUMCON:101:1,2017-08-01T20:15:00Z,29.2533,-90.6633,96.0,6.61,1111122 
LUMCON,ioos:station:LUMCON:101:1,2017-08-01T20:30:00Z,29.2533,-90.6633,98.1,6.76,1111122 
LUMCON,ioos:station:LUMCON:101:1,2017-08-01T20:45:00Z,29.2533,-90.6633,99.5,6.86,1111122 
LUMCON,ioos:station:LUMCON:101:1,2017-08-01T21:00:00Z,29.2533,-90.6633,101.4,6.99,1111122 
LUMCON,ioos:station:LUMCON:101:1,2017-08-01T21:15:00Z,29.2533,-90.6633,103.7,7.16,1111122 
LUMCON,ioos:station:LUMCON:101:1,2017-08-01T21:30:00Z,29.2533,-90.6633,104.6,7.21,1111122 
LUMCON,ioos:station:LUMCON:101:1,2017-08-01T21:45:00Z,29.2533,-90.6633,105.5,7.28,1111122 
LUMCON,ioos:station:LUMCON:101:1,2017-08-01T22:00:00Z,29.2533,-90.6633,107.3,7.41,1111122 
LUMCON,ioos:station:LUMCON:101:1,2017-08-01T22:15:00Z,29.2533,-90.6633,108.7,7.52,1111122 
LUMCON,ioos:station:LUMCON:101:1,2017-08-01T22:30:00Z,29.2533,-90.6633,109.4,7.57,1111122 
LUMCON,ioos:station:LUMCON:101:1,2017-08-01T22:45:00Z,29.2533,-90.6633,111.4,7.73,1111122 
LUMCON,ioos:station:LUMCON:101:1,2017-08-01T23:00:00Z,29.2533,-90.6633,111.2,7.72,1111122 
LUMCON,ioos:station:LUMCON:101:1,2017-08-01T23:15:00Z,29.2533,-90.6633,111.3,7.74,1111122 
LUMCON,ioos:station:LUMCON:101:1,2017-08-01T23:30:00Z,29.2533,-90.6633,111.3,7.74,1111122 
LUMCON,ioos:station:LUMCON:101:1,2017-08-01T23:45:00Z,29.2533,-90.6633,112.0,7.82,1111122 
LUMCON,ioos:station:LUMCON:101:1,2017-08-02T00:00:00Z,29.2533,-90.6633,111.1,7.76,1111122 
LUMCON,ioos:station:LUMCON:101:1,2017-08-02T00:15:00Z,29.2533,-90.6633,110.5,7.73,1111122 
LUMCON,ioos:station:LUMCON:101:1,2017-08-02T00:30:00Z,29.2533,-90.6633,110.5,7.74,1111122 
LUMCON,ioos:station:LUMCON:101:1,2017-08-02T00:45:00Z,29.2533,-90.6633,109.3,7.67,1111122 
LUMCON,ioos:station:LUMCON:101:1,2017-08-02T01:00:00Z,29.2533,-90.6633,108.9,7.65,1111122 
LUMCON,ioos:station:LUMCON:101:1,2017-08-02T01:15:00Z,29.2533,-90.6633,106.7,7.5,1111122 
LUMCON,ioos:station:LUMCON:101:1,2017-08-02T01:30:00Z,29.2533,-90.6633,95.5,6.72,1111122 
LUMCON,ioos:station:LUMCON:101:1,2017-08-02T01:45:00Z,29.2533,-90.6633,92.1,6.42,1111122 
LUMCON,ioos:station:LUMCON:101:1,2017-08-02T02:00:00Z,29.2533,-90.6633,87.2,6.02,1111122 
LUMCON,ioos:station:LUMCON:101:1,2017-08-02T02:15:00Z,29.2533,-90.6633,81.5,5.62,1111122 
LUMCON,ioos:station:LUMCON:101:1,2017-08-02T02:30:00Z,29.2533,-90.6633,83.5,5.76,1111122 
LUMCON,ioos:station:LUMCON:101:1,2017-08-02T02:45:00Z,29.2533,-90.6633,88.7,6.13,1111122 
LUMCON,ioos:station:LUMCON:101:1,2017-08-02T03:00:00Z,29.2533,-90.6633,91.2,6.33,1111122 
LUMCON,ioos:station:LUMCON:101:1,2017-08-02T03:15:00Z,29.2533,-90.6633,96.8,6.74,1111122 
LUMCON,ioos:station:LUMCON:101:1,2017-08-02T03:30:00Z,29.2533,-90.6633,94.4,6.57,1111122 
LUMCON,ioos:station:LUMCON:101:1,2017-08-02T03:45:00Z,29.2533,-90.6633,95.9,6.68,1111122 
LUMCON,ioos:station:LUMCON:101:1,2017-08-02T04:00:00Z,29.2533,-90.6633,94.8,6.61,1111122 
LUMCON,ioos:station:LUMCON:101:1,2017-08-02T04:15:00Z,29.2533,-90.6633,93.5,6.51,1111122 
LUMCON,ioos:station:LUMCON:101:1,2017-08-02T04:30:00Z,29.2533,-90.6633,91.4,6.36,1111122 
LUMCON,ioos:station:LUMCON:101:1,2017-08-02T04:45:00Z,29.2533,-90.6633,89.6,6.24,1111122 
LUMCON,ioos:station:LUMCON:101:1,2017-08-02T05:00:00Z,29.2533,-90.6633,89.8,6.26,1111122 
LUMCON,ioos:station:LUMCON:101:1,2017-08-02T05:15:00Z,29.2533,-90.6633,87.4,6.09,1111122 
LUMCON,ioos:station:LUMCON:101:1,2017-08-02T05:30:00Z,29.2533,-90.6633,87.3,6.09,1111122 
LUMCON,ioos:station:LUMCON:101:1,2017-08-02T05:45:00Z,29.2533,-90.6633,86.9,6.08,1111122 
LUMCON,ioos:station:LUMCON:101:1,2017-08-02T06:00:00Z,29.2533,-90.6633,85.9,6.01,1111122 
LUMCON,ioos:station:LUMCON:101:1,2017-08-02T06:15:00Z,29.2533,-90.6633,85.8,6.01,1111122 
LUMCON,ioos:station:LUMCON:101:1,2017-08-02T06:30:00Z,29.2533,-90.6633,85.3,5.99,1111122 
LUMCON,ioos:station:LUMCON:101:1,2017-08-02T06:45:00Z,29.2533,-90.6633,84.5,5.93,1111122 
LUMCON,ioos:station:LUMCON:101:1,2017-08-02T07:00:00Z,29.2533,-90.6633,82.6,5.8,1111122 
LUMCON,ioos:station:LUMCON:101:1,2017-08-02T07:15:00Z,29.2533,-90.6633,80.4,5.65,1111122 
LUMCON,ioos:station:LUMCON:101:1,2017-08-02T07:30:00Z,29.2533,-90.6633,70.69,4.97,1111122 
LUMCON,ioos:station:LUMCON:101:1,2017-08-02T07:45:00Z,29.2533,-90.6633,74.73,5.27,1111122 
LUMCON,ioos:station:LUMCON:101:1,2017-08-02T08:00:00Z,29.2533,-90.6633,77.07,5.43,1111122 
LUMCON,ioos:station:LUMCON:101:1,2017-08-02T08:15:00Z,29.2533,-90.6633,78.04,5.5,1111122 
LUMCON,ioos:station:LUMCON:101:1,2017-08-02T08:30:00Z,29.2533,-90.6633,80.2,5.66,1111122 
LUMCON,ioos:station:LUMCON:101:1,2017-08-02T08:45:00Z,29.2533,-90.6633,80.9,5.71,1111122 
LUMCON,ioos:station:LUMCON:101:1,2017-08-02T09:00:00Z,29.2533,-90.6633,80.7,5.7,1111122 
LUMCON,ioos:station:LUMCON:101:1,2017-08-02T09:15:00Z,29.2533,-90.6633,79.71,5.63,1111122 
LUMCON,ioos:station:LUMCON:101:1,2017-08-02T09:30:00Z,29.2533,-90.6633,80.5,5.69,1111122 
LUMCON,ioos:station:LUMCON:101:1,2017-08-02T09:45:00Z,29.2533,-90.6633,79.94,5.65,1111122 
LUMCON,ioos:station:LUMCON:101:1,2017-08-02T10:00:00Z,29.2533,-90.6633,79.43,5.62,1111122 
LUMCON,ioos:station:LUMCON:101:1,2017-08-02T10:15:00Z,29.2533,-90.6633,79.81,5.64,1111122 
LUMCON,ioos:station:LUMCON:101:1,2017-08-02T10:30:00Z,29.2533,-90.6633,78.63,5.56,1111122 
LUMCON,ioos:station:LUMCON:101:1,2017-08-02T10:45:00Z,29.2533,-90.6633,78.76,5.57,1111122 
LUMCON,ioos:station:LUMCON:101:1,2017-08-02T11:00:00Z,29.2533,-90.6633,78.05,5.52,1111122 
LUMCON,ioos:station:LUMCON:101:1,2017-08-02T11:15:00Z,29.2533,-90.6633,78.72,5.57,1111122 
LUMCON,ioos:station:LUMCON:101:1,2017-08-02T11:30:00Z,29.2533,-90.6633,78.87,5.57,1111122 
LUMCON,ioos:station:LUMCON:101:1,2017-08-02T11:45:00Z,29.2533,-90.6633,77.53,5.48,1111122 
LUMCON,ioos:station:LUMCON:101:1,2017-08-02T12:00:00Z,29.2533,-90.6633,75.73,5.35,1111122 
LUMCON,ioos:station:LUMCON:101:1,2017-08-02T12:15:00Z,29.2533,-90.6633,73.15,5.17,1111122 
LUMCON,ioos:station:LUMCON:101:1,2017-08-02T12:30:00Z,29.2533,-90.6633,68.81,4.86,1111122 
LUMCON,ioos:station:LUMCON:101:1,2017-08-02T12:45:00Z,29.2533,-90.6633,71.49,5.05,1111122 
LUMCON,ioos:station:LUMCON:101:1,2017-08-02T13:00:00Z,29.2533,-90.6633,66.61,4.7,1111122 
LUMCON,ioos:station:LUMCON:101:1,2017-08-02T13:15:00Z,29.2533,-90.6633,68.79,4.86,1111122 
LUMCON,ioos:station:LUMCON:101:1,2017-08-02T13:30:00Z,29.2533,-90.6633,67.38,4.76,1111122 
LUMCON,ioos:station:LUMCON:101:1,2017-08-02T13:45:00Z,29.2533,-90.6633,63.12,4.45,1111122 
LUMCON,ioos:station:LUMCON:101:1,2017-08-02T14:00:00Z,29.2533,-90.6633,69.3,4.89,1111122 
LUMCON,ioos:station:LUMCON:101:1,2017-08-02T14:15:00Z,29.2533,-90.6633,63.96,4.51,1111122 
LUMCON,ioos:station:LUMCON:101:1,2017-08-02T14:30:00Z,29.2533,-90.6633,55.85,3.94,1111122 
LUMCON,ioos:station:LUMCON:101:1,2017-08-02T14:45:00Z,29.2533,-90.6633,61.03,4.3,1111122 
LUMCON,ioos:station:LUMCON:101:1,2017-08-02T15:00:00Z,29.2533,-90.6633,58.17,4.1,1111122 
LUMCON,ioos:station:LUMCON:101:1,2017-08-02T15:15:00Z,29.2533,-90.6633,61.11,4.3,1111122 
LUMCON,ioos:station:LUMCON:101:1,2017-08-02T15:30:00Z,29.2533,-90.6633,67.68,4.77,1111122 
LUMCON,ioos:station:LUMCON:101:1,2017-08-02T15:45:00Z,29.2533,-90.6633,61.66,4.34,1111122 
LUMCON,ioos:station:LUMCON:101:1,2017-08-02T16:00:00Z,29.2533,-90.6633,66.06,4.65,1111122 
LUMCON,ioos:station:LUMCON:101:1,2017-08-02T16:15:00Z,29.2533,-90.6633,70.03,4.91,1111122 
LUMCON,ioos:station:LUMCON:101:1,2017-08-02T16:30:00Z,29.2533,-90.6633,73.55,5.15,1111122 
LUMCON,ioos:station:LUMCON:101:1,2017-08-02T16:45:00Z,29.2533,-90.6633,75.78,5.31,1111122 
LUMCON,ioos:station:LUMCON:101:1,2017-08-02T17:00:00Z,29.2533,-90.6633,74.25,5.2,1111122 
LUMCON,ioos:station:LUMCON:101:1,2017-08-02T17:15:00Z,29.2533,-90.6633,70.51,4.94,1111122 
LUMCON,ioos:station:LUMCON:101:1,2017-08-02T17:30:00Z,29.2533,-90.6633,70.63,4.94,1111122 
LUMCON,ioos:station:LUMCON:101:1,2017-08-02T17:45:00Z,29.2533,-90.6633,71.76,5.01,1111122 
LUMCON,ioos:station:LUMCON:101:1,2017-08-02T18:00:00Z,29.2533,-90.6633,73.5,5.13,1111122 
LUMCON,ioos:station:LUMCON:101:1,2017-08-02T18:15:00Z,29.2533,-90.6633,74.57,5.19,1111122 
LUMCON,ioos:station:LUMCON:101:1,2017-08-02T18:30:00Z,29.2533,-90.6633,75.68,5.26,1111122 
LUMCON,ioos:station:LUMCON:101:1,2017-08-02T18:45:00Z,29.2533,-90.6633,76.01,5.28,1111122 
LUMCON,ioos:station:LUMCON:101:1,2017-08-02T19:00:00Z,29.2533,-90.6633,76.14,5.29,1111122 
LUMCON,ioos:station:LUMCON:101:1,2017-08-02T19:15:00Z,29.2533,-90.6633,74.9,5.22,1111122 
LUMCON,ioos:station:LUMCON:101:1,2017-08-02T19:30:00Z,29.2533,-90.6633,76.76,5.37,1111122 
LUMCON,ioos:station:LUMCON:101:1,2017-08-02T19:45:00Z,29.2533,-90.6633,78.72,5.55,1111122 
LUMCON,ioos:station:LUMCON:101:1,2017-08-02T20:00:00Z,29.2533,-90.6633,78.42,5.55,1111122 
LUMCON,ioos:station:LUMCON:101:1,2017-08-02T20:15:00Z,29.2533,-90.6633,78.12,5.54,1111122 
LUMCON,ioos:station:LUMCON:101:1,2017-08-02T20:30:00Z,29.2533,-90.6633,77.68,5.52,1111122 
LUMCON,ioos:station:LUMCON:101:1,2017-08-02T20:45:00Z,29.2533,-90.6633,76.43,5.43,1111122 
LUMCON,ioos:station:LUMCON:101:1,2017-08-02T21:00:00Z,29.2533,-90.6633,77.37,5.5,1111122 
LUMCON,ioos:station:LUMCON:101:1,2017-08-02T21:15:00Z,29.2533,-90.6633,78.02,5.55,1111122 
LUMCON,ioos:station:LUMCON:101:1,2017-08-02T21:30:00Z,29.2533,-90.6633,77.55,5.53,1111122 
LUMCON,ioos:station:LUMCON:101:1,2017-08-02T21:45:00Z,29.2533,-90.6633,77.25,5.52,1111122 
LUMCON,ioos:station:LUMCON:101:1,2017-08-02T22:00:00Z,29.2533,-90.6633,78.42,5.62,1111122 
LUMCON,ioos:station:LUMCON:101:1,2017-08-02T22:15:00Z,29.2533,-90.6633,77.07,5.54,1111122 
LUMCON,ioos:station:LUMCON:101:1,2017-08-02T22:30:00Z,29.2533,-90.6633,77.33,5.57,1111122 
LUMCON,ioos:station:LUMCON:101:1,2017-08-02T22:45:00Z,29.2533,-90.6633,76.01,5.49,1111122 
LUMCON,ioos:station:LUMCON:101:1,2017-08-02T23:00:00Z,29.2533,-90.6633,77.67,5.61,1111122 
LUMCON,ioos:station:LUMCON:101:1,2017-08-02T23:15:00Z,29.2533,-90.6633,77.16,5.58,1111122 
LUMCON,ioos:station:LUMCON:101:1,2017-08-02T23:30:00Z,29.2533,-90.6633,77.08,5.59,1111122 
LUMCON,ioos:station:LUMCON:101:1,2017-08-02T23:45:00Z,29.2533,-90.6633,76.9,5.58,1111122 
LUMCON,ioos:station:LUMCON:101:1,2017-08-03T00:00:00Z,29.2533,-90.6633,76.42,5.55,1111122 
LUMCON,ioos:station:LUMCON:101:1,2017-08-03T00:15:00Z,29.2533,-90.6633,75.62,5.5,1111122 
LUMCON,ioos:station:LUMCON:101:1,2017-08-03T00:30:00Z,29.2533,-90.6633,75.96,5.53,1111122 
LUMCON,ioos:station:LUMCON:101:1,2017-08-03T00:45:00Z,29.2533,-90.6633,73.02,5.32,1111122 
LUMCON,ioos:station:LUMCON:101:1,2017-08-03T01:00:00Z,29.2533,-90.6633,72.17,5.27,1111122 
LUMCON,ioos:station:LUMCON:101:1,2017-08-03T01:15:00Z,29.2533,-90.6633,70.75,5.17,1111122 
LUMCON,ioos:station:LUMCON:101:1,2017-08-03T01:30:00Z,29.2533,-90.6633,70.42,5.14,1111122 
LUMCON,ioos:station:LUMCON:101:1,2017-08-03T01:45:00Z,29.2533,-90.6633,65.91,4.81,1111122 
LUMCON,ioos:station:LUMCON:101:1,2017-08-03T02:00:00Z,29.2533,-90.6633,72.2,5.19,1111122 
LUMCON,ioos:station:LUMCON:101:1,2017-08-03T02:15:00Z,29.2533,-90.6633,71.34,5.11,1111122 
LUMCON,ioos:station:LUMCON:101:1,2017-08-03T02:30:00Z,29.2533,-90.6633,68.48,4.93,1111122 
LUMCON,ioos:station:LUMCON:101:1,2017-08-03T02:45:00Z,29.2533,-90.6633,70.37,5.06,1111122 
LUMCON,ioos:station:LUMCON:101:1,2017-08-03T03:00:00Z,29.2533,-90.6633,70.73,5.09,1111122 
LUMCON,ioos:station:LUMCON:101:1,2017-08-03T03:15:00Z,29.2533,-90.6633,72.38,5.21,1111122 
LUMCON,ioos:station:LUMCON:101:1,2017-08-03T03:30:00Z,29.2533,-90.6633,74.23,5.34,1111122 
LUMCON,ioos:station:LUMCON:101:1,2017-08-03T03:45:00Z,29.2533,-90.6633,74.39,5.33,1111122 
LUMCON,ioos:station:LUMCON:101:1,2017-08-03T04:00:00Z,29.2533,-90.6633,75.48,5.41,1111122 
LUMCON,ioos:station:LUMCON:101:1,2017-08-03T04:15:00Z,29.2533,-90.6633,76.25,5.47,1111122 
LUMCON,ioos:station:LUMCON:101:1,2017-08-03T05:15:00Z,29.2533,-90.6633,78.68,5.66,1111122 
LUMCON,ioos:station:LUMCON:101:1,2017-08-03T05:30:00Z,29.2533,-90.6633,79.36,5.71,1111122 
LUMCON,ioos:station:LUMCON:101:1,2017-08-03T05:45:00Z,29.2533,-90.6633,79.98,5.75,1111122 
LUMCON,ioos:station:LUMCON:101:1,2017-08-03T06:00:00Z,29.2533,-90.6633,79.65,5.73,1111122 
LUMCON,ioos:station:LUMCON:101:1,2017-08-03T06:15:00Z,29.2533,-90.6633,79.6,5.72,1111122 
LUMCON,ioos:station:LUMCON:101:1,2017-08-03T06:30:00Z,29.2533,-90.6633,78.81,5.66,1111122 
LUMCON,ioos:station:LUMCON:101:1,2017-08-03T06:45:00Z,29.2533,-90.6633,78.67,5.65,1111122 
LUMCON,ioos:station:LUMCON:101:1,2017-08-03T07:00:00Z,29.2533,-90.6633,78.52,5.64,1111122 
LUMCON,ioos:station:LUMCON:101:1,2017-08-03T07:15:00Z,29.2533,-90.6633,79.65,5.72,1111122 
LUMCON,ioos:station:LUMCON:101:1,2017-08-03T07:30:00Z,29.2533,-90.6633,78.52,5.64,1111122 
LUMCON,ioos:station:LUMCON:101:1,2017-08-03T07:45:00Z,29.2533,-90.6633,78.29,5.62,1111122 
LUMCON,ioos:station:LUMCON:101:1,2017-08-03T08:00:00Z,29.2533,-90.6633,79.26,5.69,1111122 
LUMCON,ioos:station:LUMCON:101:1,2017-08-03T08:15:00Z,29.2533,-90.6633,78.03,5.59,1111122 
LUMCON,ioos:station:LUMCON:101:1,2017-08-03T08:30:00Z,29.2533,-90.6633,77.44,5.55,1111122 
LUMCON,ioos:station:LUMCON:101:1,2017-08-03T08:45:00Z,29.2533,-90.6633,77.85,5.58,1111122 
LUMCON,ioos:station:LUMCON:101:1,2017-08-03T09:00:00Z,29.2533,-90.6633,76.86,5.51,1111122 
LUMCON,ioos:station:LUMCON:101:1,2017-08-03T09:15:00Z,29.2533,-90.6633,77.85,5.58,1111122 
LUMCON,ioos:station:LUMCON:101:1,2017-08-03T09:30:00Z,29.2533,-90.6633,77.33,5.54,1111122 
LUMCON,ioos:station:LUMCON:101:1,2017-08-03T09:45:00Z,29.2533,-90.6633,76.81,5.5,1111122 
LUMCON,ioos:station:LUMCON:101:1,2017-08-03T10:00:00Z,29.2533,-90.6633,77.97,5.57,1111122 
LUMCON,ioos:station:LUMCON:101:1,2017-08-03T10:15:00Z,29.2533,-90.6633,77.39,5.53,1111122 
LUMCON,ioos:station:LUMCON:101:1,2017-08-03T10:30:00Z,29.2533,-90.6633,77.37,5.53,1111122 
LUMCON,ioos:station:LUMCON:101:1,2017-08-03T10:45:00Z,29.2533,-90.6633,75.69,5.4,1111122 
LUMCON,ioos:station:LUMCON:101:1,2017-08-03T11:00:00Z,29.2533,-90.6633,77.49,5.53,1111122 
LUMCON,ioos:station:LUMCON:101:1,2017-08-03T11:15:00Z,29.2533,-90.6633,73.6,5.25,1111122 
LUMCON,ioos:station:LUMCON:101:1,2017-08-03T11:30:00Z,29.2533,-90.6633,74.44,5.32,1111122 
LUMCON,ioos:station:LUMCON:101:1,2017-08-03T11:45:00Z,29.2533,-90.6633,75.36,5.38,1111122 
LUMCON,ioos:station:LUMCON:101:1,2017-08-03T12:00:00Z,29.2533,-90.6633,76.48,5.46,1111122 
LUMCON,ioos:station:LUMCON:101:1,2017-08-03T12:15:00Z,29.2533,-90.6633,73.08,5.22,1111122 
LUMCON,ioos:station:LUMCON:101:1,2017-08-03T12:30:00Z,29.2533,-90.6633,66.45,4.74,1111122 
LUMCON,ioos:station:LUMCON:101:1,2017-08-03T12:45:00Z,29.2533,-90.6633,68.83,4.91,1111122 
LUMCON,ioos:station:LUMCON:101:1,2017-08-03T13:00:00Z,29.2533,-90.6633,73.24,5.24,1111122 
LUMCON,ioos:station:LUMCON:101:1,2017-08-03T13:15:00Z,29.2533,-90.6633,73.22,5.24,1111122 
LUMCON,ioos:station:LUMCON:101:1,2017-08-03T13:30:00Z,29.2533,-90.6633,74.85,5.37,1111122 
LUMCON,ioos:station:LUMCON:101:1,2017-08-03T13:45:00Z,29.2533,-90.6633,72.59,5.22,1111122 
LUMCON,ioos:station:LUMCON:101:1,2017-08-03T14:00:00Z,29.2533,-90.6633,71.62,5.16,1111122 
LUMCON,ioos:station:LUMCON:101:1,2017-08-03T14:15:00Z,29.2533,-90.6633,70.47,5.08,1111122 
LUMCON,ioos:station:LUMCON:101:1,2017-08-03T14:30:00Z,29.2533,-90.6633,69.65,5.03,1111122 
LUMCON,ioos:station:LUMCON:101:1,2017-08-03T14:45:00Z,29.2533,-90.6633,68.3,4.94,1111122 
LUMCON,ioos:station:LUMCON:101:1,2017-08-03T15:00:00Z,29.2533,-90.6633,68.14,4.93,1111122 
LUMCON,ioos:station:LUMCON:101:1,2017-08-03T15:15:00Z,29.2533,-90.6633,65.49,4.75,1111122 
LUMCON,ioos:station:LUMCON:101:1,2017-08-03T15:30:00Z,29.2533,-90.6633,65.13,4.73,1111122 
LUMCON,ioos:station:LUMCON:101:1,2017-08-03T15:45:00Z,29.2533,-90.6633,63.68,4.63,1111122 
LUMCON,ioos:station:LUMCON:101:1,2017-08-03T16:00:00Z,29.2533,-90.6633,62.53,4.55,1111122 
LUMCON,ioos:station:LUMCON:101:1,2017-08-03T16:15:00Z,29.2533,-90.6633,60.6,4.42,1111122 
LUMCON,ioos:station:LUMCON:101:1,2017-08-03T16:30:00Z,29.2533,-90.6633,58.72,4.29,1111122 
LUMCON,ioos:station:LUMCON:101:1,2017-08-04T01:00:00Z,29.2533,-90.6633,80.5,5.91,1111122 
LUMCON,ioos:station:LUMCON:101:1,2017-08-04T01:15:00Z,29.2533,-90.6633,78.33,5.75,1111122 
LUMCON,ioos:station:LUMCON:101:1,2017-08-04T01:30:00Z,29.2533,-90.6633,76.64,5.63,1111122 
LUMCON,ioos:station:LUMCON:101:1,2017-08-04T01:45:00Z,29.2533,-90.6633,78.68,5.79,1111122 
LUMCON,ioos:station:LUMCON:101:1,2017-08-04T02:00:00Z,29.2533,-90.6633,75.83,5.58,1111122 
LUMCON,ioos:station:LUMCON:101:1,2017-08-04T02:15:00Z,29.2533,-90.6633,75.71,5.57,1111122 
LUMCON,ioos:station:LUMCON:101:1,2017-08-04T02:30:00Z,29.2533,-90.6633,75.49,5.56,1111122 
LUMCON,ioos:station:LUMCON:101:1,2017-08-04T02:45:00Z,29.2533,-90.6633,73.22,5.4,1111122 
LUMCON,ioos:station:LUMCON:101:1,2017-08-04T03:00:00Z,29.2533,-90.6633,68.38,5.04,1111122 